Location: Casteau
(50.5142°N, 4.0161°E)
Time: 09:11:52
(UTC+00:00)

Cosmos 1833 Rocket - Pass Details

Date: 18 September 2020
Orbit: 831 x 841 km, 71.0° (Epoch: 27 October)

Event Time Altitude Azimuth Distance (km) Brightness Sun altitude
Rises 21:42:24 0° 327° (NNW) 3,408 7.0 -32.5°
Reaches altitude 10° 21:44:55 10° 322° (NW) 2,469 6.0 -32.8°
Enters shadow 21:49:08 42° 286° (WNW) 1,188 3.6 -33.1°
